Showing default

COSMOS 1413 (GLONASS), 13603

Orbit data source: Space-Track

COSMOS 1413 (GLONASS), 13603 is a payload satellite owned by GUKOS (CIS) in MEO that was launched on Tue, 12 Oct 1982 UTC via a PROTON-K/DM-2 launch vehicle from the Tyuratam Missile And Space Complex (TTMTR). Payload-class satellites include a variety of spacecraft equipped with specific instruments for various scientific and technological missions. These include communications satellites like Starlink; space stations such as the ISS; scientific satellites like the Hubble; Earth observation satellites from companies like Planet Labs, Umbra, and HawkEye 360; GPS; miniature CubeSats for education and research; and military/defense satellites.

Loading next visibility...
Identifier
13603, 1982-100A
Orbit
MEO
Country
Flag of CISCIS
Related business
Manufacturer
Omsk Av. Zav.
Mission
Non-operational spacecraft
Bus & Motor
URAGAN, Unknown motor
Mass
1,300 kg wet, ~1,200 kg dry
Launch date (UTC)
1982-10-12 (44 years ago)
Launch vehicle
PROTON-K/DM-2
Launch site
Tyuratam Missile And Space Complex (TTMTR)
Object type
Payload
Rocket body
Debris
Shape & HBR
Unknown
Radar Cross Section
Medium (>0.1 m² and <1 m²)

Expand to show TLE details & history
Last TLE update: 3 days ago

TLE from 3 days ago
0 COSMOS 1413 (GLONASS)
1 13603U 82100A   26161.24319035 -.00000033  00000-0  00000-0 0  9994
2 13603  64.8745  67.0979 0008501  24.3690 162.5589  2.13866706341020
Epoch: 2026-06-10T05:50Z
TLE epoch observation values (Epoch: 2026-06-10T05:50:11.646Z)
Latitude
-6.33851°
Longitude
-96.06885°
Altitude
19,091.348 km
Speed
3.954 km/s
True Right ascension
16h 40m 20s
True Declination
-6° 19' 41"
Sunlit
Object was in daylight at epoch
Visualization orbit readout
Latitude
Unknown
Longitude
Unknown
Altitude
Unknown
Speed
Unknown
Apparent Right ascension
Unknown
Apparent Declination
Unknown
Sunlit
N/A
Visualization observer readout
Local Sidereal Time
17:07:42
Azimuth
Unknown
Elevation
Unknown
Doppler factor
Unknown
Orbital elements
Apogee altitude
19,090.297 km
Perigee altitude
19,047.032 km
Semi-major axis
25,446.802 km
Eccentricity
0.00085
Inclination
64.8745°
RAAN
67.0979°
Arg. of periapsis
24.369°
True anomaly
162.58807°
Mean anomaly
162.5589°
Eccentric anomaly
162.57349°
Mean motion
0.53468 °/min
Orbital period
673.3 mins
BSTAR
0
Loading maneuver chart data...
Computing Atmospheric mass density...
Loading historical data...
Loading historical data...
Loading historical data...
Loading historical data...
Loading historical data...
Loading historical data...
Loading historical data...

Documentation

Showing up to 5 results
|